Location: Kikino
(54.4440°N, 112.0940°W)
Time: 00:09:48
(UTC+00:00)

Vanguard 3 - Pass Details

Date: 26 May 2024
Orbit: 509 x 3231 km, 33.3° (Epoch: 21 June)

Event Time Altitude Azimuth Distance (km) Brightness Sun altitude
Rises 06:14:01 0° 258° (WSW) 5,209 11.3 -12.8°
Reaches altitude 10° 06:18:23 10° 242° (WSW) 4,657 10.9 -13.0°
Maximum altitude 06:27:09 20° 203° (SSW) 4,584 10.5 -13.3°
Enters shadow 06:34:15 15° 175° (S) 5,371 10.6 -13.5°
